Location: Calvera
(42.3882°N, 0.6137°E)
Time: 18:35:42
(UTC+00:00)

Lacrosse 4 Rocket - Pass Details

Date: 28 October 2020
Orbit: 541 x 617 km, 68.0° (Epoch: 22 November)

Event Time Altitude Azimuth Distance (km) Brightness Sun altitude
Exits shadow 04:18:19 18° 2° (N) 1,356 3.3 -24.2°
Drops below altitude 10° 04:19:39 10° 12° (NNE) 1,816 4.1 -23.9°
Sets 04:22:00 0° 22° (NNE) 2,719 5.2 -23.5°
